| time (UTC) | temp F | wind direction | speed knots | gust knots | rain 1hr in | rain 24hr in | rain mn in | humidity % | barometer mb |
| 20260906154529 | 79 | 0.0 | 0.0 | 0.00 | 0.00 | 0.00 | 66 | 1013.9 | |
| 20260906153530 | 79 | 0.0 | 0.0 | 0.00 | 0.00 | 0.00 | 67 | 1014.0 | |
| 20260906152530 | 79 | 0.0 | 0.0 | 0.00 | 0.00 | 0.00 | 68 | 1013.9 | |
| 20260906151530 | 77 | 0.0 | 0.0 | 0.00 | 0.00 | 0.00 | 74 | 1013.8 | |
| 20260906150529 | 77 | 0.0 | 0.0 | 0.00 | 0.00 | 0.00 | 74 | 1013.8 | |
| 20260906145530 | 77 | 0.0 | 0.0 | 0.00 | 0.00 | 0.00 | 74 | 1013.9 | |
| 20260906144529 | 76 | 0.0 | 0.0 | 0.00 | 0.00 | 0.00 | 79 | 1013.7 | |
| 20260906143529 | 75 | 0.0 | 0.0 | 0.00 | 0.00 | 0.00 | 84 | 1013.7 | |
| 20260906142530 | 75 | 0.0 | 0.0 | 0.00 | 0.00 | 0.00 | 84 | 1013.7 | |
| 20260906141550 | 74 | 0.0 | 0.0 | 0.00 | 0.00 | 0.00 | 89 | 1013.7 | |
| 20260906140528 | 72 | 0.0 | 0.0 | 0.00 | 0.00 | 0.00 | 89 | 1013.7 | |
| 20260906135529 | 71 | 0.0 | 0.0 | 0.00 | 0.00 | 0.00 | 90 | 1013.6 | |
| 20260906134530 | 70 | 0.0 | 0.0 | 0.00 | 0.00 | 0.00 | 91 | 1013.6 | |
| 20260906133529 | 69 | 0.0 | 0.0 | 0.00 | 0.00 | 0.00 | 90 | 1013.6 | |
| 20260906132529 | 68 | 0.0 | 0.0 | 0.00 | 0.00 | 0.00 | 66 | 1013.5 | |
| 20260906131529 | 67 | 0.0 | 0.0 | 0.00 | 0.00 | 0.00 | 57 | 1013.4 | |
| 20260906130531 | 65 | 0.0 | 0.0 | 0.00 | 0.00 | 0.00 | 58 | 1013.4 | |
| 20260906125530 | 65 | 0.0 | 0.0 | 0.00 | 0.00 | 0.00 | 54 | 1013.4 | |
| 20260906124529 | 64 | 0.0 | 0.0 | 0.00 | 0.00 | 0.00 | 53 | 1013.3 | |
| 20260906123530 | 64 | 0.0 | 0.0 | 0.00 | 0.00 | 0.00 | 52 | 1013.4 | |
| 20260906122529 | 64 | 0.0 | 0.0 | 0.00 | 0.00 | 0.00 | 51 | 1013.3 | |
| 20260906121529 | 64 | 0.0 | 0.0 | 0.00 | 0.00 | 0.00 | 52 | 1013.1 | |
| 20260906120528 | 0 | 0.0 | 0.0 | 0.00 | 0.00 | 0.00 | |||
| 20260906115508 | 0 | 0.0 | 0.0 | 0.00 | 0.00 | 0.00 | |||
| 20260906115103 | 0 | 0.0 | 0.0 | 0.00 | 0.00 | 0.00 | |||
| 20260906114028 | 0 | 0.0 | 0.0 | 0.00 | 0.00 | 0.00 | |||
| 20260906113009 | 0 | 0.0 | 0.0 | 0.00 | 0.00 | 0.00 | |||
| 20260906112604 | 0 | 0.0 | 0.0 | 0.00 | 0.00 | 0.00 | |||
| 20260906112106 | 0 | 0.0 | 0.0 | 0.00 | 0.00 | 0.00 | |||
| 20260906111528 | 0 | 0.0 | 0.0 | 0.00 | 0.00 | 0.00 | |||
| 20260906110529 | 0 | 0.0 | 0.0 | 0.00 | 0.00 | 0.00 | |||
| 20260906110100 | 0 | 0.0 | 0.0 | 0.00 | 0.00 | 0.00 | |||
| 20260906105028 | 0 | 0.0 | 0.0 | 0.00 | 0.00 | 0.00 | |||
| 20260906104010 | 0 | 0.0 | 0.0 | 0.00 | 0.00 | 0.00 | |||
| 20260906103601 | 0 | 0.0 | 0.0 | 0.00 | 0.00 | 0.00 | |||
| 20260906102528 | 0 | 0.0 | 0.0 | 0.00 | 0.00 | 0.00 | |||
| 20260906101516 | 0 | 0.0 | 0.0 | 0.00 | 0.00 | 0.00 | |||
| 20260906101113 | 0 | 0.0 | 0.0 | 0.00 | 0.00 | 0.00 | |||
| 20260906100027 | 0 | 0.0 | 0.0 | 0.00 | 0.00 | 0.00 | |||
| 20260906095011 | 0 | 0.0 | 0.0 | 0.00 | 0.00 | 0.00 | |||
| 20260906094607 | 0 | 0.0 | 0.0 | 0.00 | 0.00 | 0.00 | |||
| 20260906093528 | 0 | 0.0 | 0.0 | 0.00 | 0.00 | 0.00 | |||
| 20260906092505 | 0 | 0.0 | 0.0 | 0.00 | 0.00 | 0.00 | |||
| 20260906092118 | 0 | 0.0 | 0.0 | 0.00 | 0.00 | 0.00 | |||
| 20260906091027 | 0 | 0.0 | 0.0 | 0.00 | 0.00 | 0.00 | |||
| 20260906090028 | 0 | 0.0 | 0.0 | 0.00 | 0.00 | 0.00 | |||
| 20260906085528 | 0 | 0.0 | 0.0 | 0.00 | 0.00 | 0.00 | |||
| 20260906085116 | 0 | 0.0 | 0.0 | 0.00 | 0.00 | 0.00 | |||
| 20260906084527 | 0 | 0.0 | 0.0 | 0.00 | 0.00 | 0.00 | |||
| 20260906083511 | 0 | 0.0 | 0.0 | 0.00 | 0.00 | 0.00 | |||
| 20260906083108 | 0 | 0.0 | 0.0 | 0.00 | 0.00 | 0.00 | |||
| 20260906082027 | 0 | 0.0 | 0.0 | 0.00 | 0.00 | 0.00 | |||
| 20260906081008 | 0 | 0.0 | 0.0 | 0.00 | 0.00 | 0.00 | |||
| 20260906080604 | 0 | 0.0 | 0.0 | 0.00 | 0.00 | 0.00 | |||
| 20260906075548 | 0 | 0.0 | 0.0 | 0.00 | 0.00 | 0.00 | |||
| 20260906074527 | 0 | 0.0 | 0.0 | 0.00 | 0.00 | 0.00 | |||
| 20260906074006 | 0 | 0.0 | 0.0 | 0.00 | 0.00 | 0.00 | 49 | ||
| 20260906073537 | 68 | 0.0 | 0.0 | 0.00 | 0.00 | 0.00 | 49 | 1010.7 | |
| 20260906072530 | 68 | 0.0 | 0.0 | 0.00 | 0.00 | 0.00 | 48 | 1010.6 | |
| 20260906071529 | 68 | 0.0 | 0.0 | 0.00 | 0.00 | 0.00 | 48 | 1010.6 | |
| 20260906070528 | 69 | 0.0 | 0.0 | 0.00 | 0.00 | 0.00 | 48 | 1010.7 | |
| 20260906065529 | 69 | 0.0 | 0.0 | 0.00 | 0.00 | 0.00 | 47 | 1010.7 | |
| 20260906064530 | 69 | 0.0 | 0.0 | 0.00 | 0.00 | 0.00 | 48 | 1010.7 | |
| 20260906063530 | 69 | 0.0 | 0.0 | 0.00 | 0.00 | 0.00 | 48 | 1010.8 | |
| 20260906062534 | 69 | 0.0 | 0.0 | 0.00 | 0.00 | 0.00 | 48 | 1010.8 | |
| 20260906061530 | 69 | 0.0 | 0.0 | 0.00 | 0.00 | 0.00 | 48 | 1010.7 | |
| 20260906060529 | 69 | 0.0 | 0.0 | 0.00 | 0.00 | 0.00 | 48 | 1010.7 | |
| 20260906055530 | 69 | 0.0 | 0.0 | 0.00 | 0.00 | 0.00 | 48 | 1010.6 | |
| 20260906054529 | 69 | 0.0 | 0.0 | 0.00 | 0.00 | 0.00 | 49 | 1010.8 | |
| 20260906053530 | 69 | 0.0 | 0.0 | 0.00 | 0.00 | 0.00 | 52 | 1010.9 | |
| 20260906052529 | 69 | 0.0 | 0.0 | 0.00 | 0.00 | 0.00 | 51 | 1011.0 | |
| 20260906051529 | 69 | 0.0 | 0.0 | 0.00 | 0.00 | 0.00 | 50 | 1011.1 | |
| 20260906050528 | 69 | 0.0 | 0.0 | 0.00 | 0.00 | 0.00 | 50 | 1011.0 | |
| 20260906045529 | 70 | 0.0 | 0.0 | 0.00 | 0.00 | 0.00 | 50 | 1010.9 | |
| 20260906044529 | 70 | 0.0 | 0.0 | 0.00 | 0.00 | 0.00 | 50 | 1011.0 | |
| 20260906043529 | 70 | 0.0 | 0.0 | 0.00 | 0.00 | 0.00 | 50 | 1011.1 | |
| 20260906042550 | 70 | 0.0 | 0.0 | 0.00 | 0.00 | 0.00 | 50 | 1011.2 | |
| 20260906041531 | 70 | 0.0 | 0.0 | 0.00 | 0.00 | 0.00 | 50 | 1011.2 | |
| 20260906040539 | 70 | 0.0 | 0.0 | 0.00 | 0.00 | 0.00 | 50 | 1011.1 | |
| 20260906035529 | 70 | 0.0 | 0.0 | 0.00 | 0.00 | 0.00 | 52 | 1011.3 | |
| 20260906034534 | 71 | 0.0 | 0.0 | 0.00 | 0.00 | 0.00 | 52 | 1011.3 | |
| 20260906033529 | 71 | 0.0 | 0.0 | 0.00 | 0.00 | 0.00 | 51 | 1011.2 | |
| 20260906032529 | 71 | 0.0 | 0.0 | 0.00 | 0.00 | 0.00 | 50 | 1011.3 | |
| 20260906031529 | 71 | 0.0 | 0.0 | 0.00 | 0.00 | 0.00 | 51 | 1011.1 | |
| 20260906030529 | 71 | 0.0 | 0.0 | 0.00 | 0.00 | 0.00 | 50 | 1011.2 | |
| 20260906025549 | 71 | 0.0 | 0.0 | 0.00 | 0.00 | 0.00 | 51 | 1011.1 | |
| 20260906024530 | 71 | 0.0 | 0.0 | 0.00 | 0.00 | 0.00 | 52 | 1011.0 | |
| 20260906023528 | 71 | 0.0 | 0.0 | 0.00 | 0.00 | 0.00 | 53 | 1011.1 | |
| 20260906022528 | 71 | 0.0 | 0.0 | 0.00 | 0.00 | 0.00 | 54 | 1011.1 | |
| 20260906021536 | 71 | 0.0 | 0.0 | 0.00 | 0.00 | 0.00 | 58 | 1011.0 | |
| 20260906020529 | 71 | 0.0 | 0.0 | 0.00 | 0.00 | 0.00 | 57 | 1010.9 | |
| 20260906015529 | 71 | 0.0 | 0.0 | 0.00 | 0.00 | 0.00 | 55 | 1010.8 | |
| 20260906014529 | 71 | 0.0 | 0.0 | 0.00 | 0.00 | 0.00 | 56 | 1010.9 | |
| 20260906013530 | 71 | 0.0 | 0.0 | 0.00 | 0.00 | 0.00 | 60 | 1010.7 | |
| 20260906012528 | 72 | 0.0 | 0.0 | 0.00 | 0.00 | 0.00 | 61 | 1010.5 | |
| 20260906011528 | 72 | 0.0 | 0.0 | 0.00 | 0.00 | 0.00 | 58 | 1010.1 | |
| 20260906010530 | 72 | 0.0 | 0.0 | 0.00 | 0.00 | 0.00 | 60 | 1010.2 | |
| 20260906005529 | 72 | 0.0 | 0.0 | 0.00 | 0.00 | 0.00 | 60 | 1010.0 | |
| 20260906004529 | 72 | 0.0 | 0.0 | 0.00 | 0.00 | 0.00 | 64 | 1010.0 | |
| 20260906003529 | 73 | 0.0 | 0.0 | 0.00 | 0.00 | 0.00 | 64 | 1009.9 | |
| 20260906002529 | 73 | 0.0 | 0.0 | 0.00 | 0.00 | 0.00 | 64 | 1009.7 | |
| 20260906001528 | 73 | 0.0 | 0.0 | 0.00 | 0.00 | 0.00 | 65 | 1009.7 | |
| 20260906000529 | 73 | 0.0 | 0.0 | 0.00 | 0.00 | 0.00 | 66 | 1009.6 | |
| 20260905235530 | 73 | 0.0 | 0.0 | 0.00 | 0.00 | 0.00 | 69 | 1009.6 | |
| 20260905234528 | 73 | 0.0 | 0.0 | 0.00 | 0.00 | 0.00 | 71 | 1009.7 | |
| 20260905233529 | 74 | 0.0 | 0.0 | 0.00 | 0.00 | 0.00 | 73 | 1009.8 | |
| 20260905232530 | 74 | 0.0 | 0.0 | 0.00 | 0.00 | 0.00 | 73 | 1009.8 | |
| 20260905231530 | 74 | 0.0 | 0.0 | 0.00 | 0.00 | 0.00 | 77 | 1009.6 | |
| 20260905230528 | 74 | 0.0 | 0.0 | 0.00 | 0.00 | 0.00 | 82 | 1009.6 | |
| 20260905225529 | 75 | 0.0 | 0.0 | 0.00 | 0.00 | 0.00 | 76 | 1009.4 | |
| 20260905224528 | 75 | 0.0 | 0.0 | 0.00 | 0.00 | 0.00 | 75 | 1009.6 | |
| 20260905223528 | 75 | 0.0 | 0.0 | 0.00 | 0.00 | 0.00 | 76 | 1009.6 | |
| 20260905222530 | 76 | 0.0 | 0.0 | 0.00 | 0.00 | 0.00 | 77 | 1009.5 | |
| 20260905221528 | 76 | 0.0 | 0.0 | 0.00 | 0.00 | 0.00 | 79 | 1009.4 | |
| 20260905220530 | 75 | 0.0 | 0.0 | 0.00 | 0.00 | 0.00 | 79 | 1009.4 | |
| 20260905215529 | 75 | 0.0 | 0.0 | 0.00 | 0.00 | 0.00 | 85 | 1009.2 | |
| 20260905214528 | 76 | 0.0 | 0.0 | 0.00 | 0.00 | 0.00 | 85 | 1009.0 | |
| 20260905213529 | 75 | 0.0 | 0.0 | 0.00 | 0.00 | 0.00 | 87 | 1009.2 | |
| 20260905212528 | 75 | 0.0 | 0.0 | 0.00 | 0.00 | 0.00 | 92 | 1009.3 | |
| 20260905211529 | 76 | 0.0 | 0.0 | 0.00 | 0.00 | 0.00 | 92 | 1009.1 | |
| 20260905210528 | 76 | 0.0 | 0.0 | 0.00 | 0.00 | 0.00 | 92 | 1009.2 | |
| 20260905205648 | 76 | 0.0 | 0.0 | 0.00 | 0.00 | 0.00 | 92 | 1009.0 | |
| 20260905204609 | 76 | 0.0 | 0.0 | 0.00 | 0.00 | 0.00 | 92 | 1009.1 | |
| 20260905203528 | 76 | 0.0 | 0.0 | 0.00 | 0.00 | 0.00 | 92 | 1009.1 | |
| 20260905202528 | 75 | 0.0 | 0.0 | 0.00 | 0.00 | 0.00 | 91 | 1009.1 | |
| 20260905201528 | 75 | 0.0 | 0.0 | 0.00 | 0.00 | 0.00 | 91 | 1009.2 | |
| 20260905200550 | 76 | 0.0 | 0.0 | 0.00 | 0.00 | 0.00 | 92 | 1009.2 | |
| 20260905195528 | 76 | 0.0 | 0.0 | 0.00 | 0.00 | 0.00 | 92 | 1009.2 | |
| 20260905194528 | 77 | 0.0 | 0.0 | 0.00 | 0.00 | 0.00 | 92 | 1009.3 | |
| 20260905193551 | 77 | 0.0 | 0.0 | 0.00 | 0.00 | 0.00 | 92 | 1009.5 | |
| 20260905192530 | 76 | 0.0 | 0.0 | 0.00 | 0.00 | 0.00 | 92 | 1009.6 | |
| 20260905191529 | 76 | 0.0 | 0.0 | 0.00 | 0.00 | 0.00 | 92 | 1009.6 | |
| 20260905190529 | 76 | 0.0 | 0.0 | 0.00 | 0.00 | 0.00 | 90 | 1009.6 | |
| 20260905185549 | 75 | 0.0 | 0.0 | 0.00 | 0.00 | 0.00 | 91 | 1009.7 | |
| 20260905184528 | 75 | 0.0 | 0.0 | 0.00 | 0.00 | 0.00 | 89 | 1009.9 | |
| 20260905183530 | 75 | 0.0 | 0.0 | 0.00 | 0.00 | 0.00 | 86 | 1010.2 | |
| 20260905182530 | 75 | 0.0 | 0.0 | 0.00 | 0.00 | 0.00 | 77 | 1010.0 | |
| 20260905181550 | 74 | 0.0 | 0.0 | 0.00 | 0.00 | 0.00 | 81 | 1009.9 | |
| 20260905180530 | 74 | 0.0 | 0.0 | 0.00 | 0.00 | 0.00 | 85 | 1009.6 | |
| 20260905175531 | 74 | 0.0 | 0.0 | 0.00 | 0.00 | 0.00 | 85 | 1009.4 | |
| 20260905174528 | 74 | 0.0 | 0.0 | 0.00 | 0.00 | 0.00 | 85 | 1009.3 | |
| 20260905173529 | 74 | 0.0 | 0.0 | 0.00 | 0.00 | 0.00 | 83 | 1009.3 | |
| 20260905172530 | 73 | 0.0 | 0.0 | 0.00 | 0.00 | 0.00 | 82 | 1009.7 | |
| 20260905171529 | 73 | 0.0 | 0.0 | 0.00 | 0.00 | 0.00 | 87 | 1010.0 | |
| 20260905170529 | 72 | 0.0 | 0.0 | 0.00 | 0.00 | 0.00 | 91 | 1010.0 | |
| 20260905165529 | 73 | 0.0 | 0.0 | 0.00 | 0.00 | 0.00 | 92 | 1010.5 | |
| 20260905164530 | 74 | 0.0 | 0.0 | 0.00 | 0.00 | 0.00 | 91 | 1011.0 | |
| 20260905163530 | 76 | 0.0 | 0.0 | 0.00 | 0.00 | 0.00 | 88 | 1012.2 | |
| 20260905162529 | 77 | 0.0 | 0.0 | 0.00 | 0.00 | 0.00 | 87 | 1011.8 | |
| 20260905161529 | 78 | 0.0 | 0.0 | 0.00 | 0.00 | 0.00 | 84 | 1011.4 | |
| 20260905160529 | 78 | 0.0 | 0.0 | 0.00 | 0.00 | 0.00 | 83 | 1011.4 | |
| 20260905155554 | 79 | 0.0 | 0.0 | 0.00 | 0.00 | 0.00 | 83 | 1011.3 |